Lid_Strength_Index
2 1 -1 -1 -1 -1 -1 -1 -1 -1 -1 -1 -1 -1 -1 -1 -1 -1 -1 -1 -1 -1 -1 -1 -1 -1 -1 -1 -1 -1 -1 -1 -1 -1 -1 -1 -1 -1 -1 -1 -1 -0 -1
1 -0 -1 -1 -0 -1 -1 -1 -1 -1 -1 -1 -1 -1 -1 -1 -1 -1 -1 -1 -1 -1 -1 -1 -1 -1 -1 -1 -1 -1 -1 -1 -1 -1 -1 -0 -1 -1 -1 -1 -1 -1 -1
1 -0 -0 -1 -1 -1 -1 -1 -1 -1 -1 -1 -1 -1 -1 -1 -1 -1 -1 -1 -1 -1 -1 -1 -1 -1 -1 -1 -1 -1 -1 -2 -1 -1 -1 0 -0 -1 -1 -1 -1 -1 -1
0 0 -0 -1 -1 -1 -1 -1 -1 -1 -1 -1 -1 -1 -1 -1 -1 -1 -1 -1 -1 -1 -1 -1 -1 -1 -1 -1 -1 -1 -1 -2 -1 -1 0 -0 -0 -1 -1 -1 -1 -1 -1
0 0 -0 -1 -1 -1 -1 -1 -1 -1 -1 -1 -1 -1 -1 -1 -1 -1 -1 -1 -1 -1 -1 -1 -1 -1 -1 -1 -1 -1 -1 -1 -1 -0 0 0 0 -1 -1 -1 -1 -1 -1
1 0 -0 -1 -1 -1 -1 -1 -1 -1 -1 -1 -1 -1 -1 -1 -1 -1 -1 -1 -1 -1 -1 -1 -1 -1 -1 -1 -1 -1 -1 -1 -0 1 0 -0 0 -1 -1 -1 -1 -1 -1
1 1 0 -1 -1 -1 -1 -1 -1 -1 -1 -1 -1 -1 -1 -1 -1 -1 -1 -1 -1 -1 -1 -1 -1 -1 -1 -1 -1 -1 -1 -0 1 1 1 0 0 -1 -1 -1 -1 -1 -1
2 1 0 -0 -1 -1 -1 -1 -1 -1 -1 -1 -1 -1 -1 -1 -1 -1 -1 -1 -1 -1 -1 -1 -1 -1 -1 -1 -1 -1 -1 0 1 1 1 1 -1 -1 -1 -1 -1 -2 -1
1 1 1 1 0 -0 -1 -1 -1 -1 -1 -1 -1 -1 -1 -1 -1 -1 -1 -1 -1 -1 -1 -1 -1 -1 -1 -1 -1 -1 -0 1 1 0 0 1 -1 -1 -2 -1 -1 -2 -2
1 2 2 1 -0 -0 -0 0 0 -0 -0 -1 -1 -0 0 0 -0 -1 -1 -1 -1 -1 -1 -1 -1 -1 -1 -1 -1 -0 1 1 1 1 1 0 -1 -2 -2 -1 -2 -2 -2
10 4 2 2 1 0 1 0 0 0 0 0 0 1 1 1 1 1 1 -0 -1 -1 -1 -1 -1 -1 -1 -1 -1 0 1 1 2 1 1 -1 -2 -1 -2 -2 -2 -2 -2
14 12 11 7 2 2 1 1 1 1 0 0 1 2 3 3 3 2 2 1 -1 -1 -1 -1 -1 -1 -0 -0 -0 0 1 0 1 1 0 -1 -2 -2 -2 -1 -2 -1 -2
16 15 14 13 10 3 2 2 2 1 2 1 2 3 4 4 4 4 4 4 3 1 1 0 -0 1 1 0 0 1 1 1 0 0 0 -0 -1 -1 -2 -1 -1 -1 -2
17 17 16 14 12 9 2 3 3 3 3 3 3 3 4 5 5 4 4 3 4 3 2 1 1 1 1 1 1 1 1 1 1 1 0 -0 -1 -1 -2 -2 -2 -2 -2
18 17 17 15 13 12 9 2 3 3 3 3 3 3 4 5 5 4 3 2 2 1 1 1 1 1 1 2 1 1 2 2 2 2 -0 1 -0 -1 -1 -2 -2 -2 -2
17 18 17 17 14 14 12 8 2 2 2 2 3 3 3 4 4 3 3 2 1 0 1 1 1 1 2 2 2 2 2 2 2 3 -0 -0 -0 -1 -1 -2 -2 -2 -2
19 18 18 18 16 15 13 11 5 2 2 3 3 3 3 2 2 2 2 2 2 1 1 1 2 2 3 3 4 4 4 4 4 4 2 0 -0 0 -1 -2 -2 -1 -1
19 19 18 17 16 16 14 13 9 2 2 3 3 3 3 3 3 2 3 3 2 2 2 2 3 4 5 6 6 6 6 5 6 6 5 4 2 1 0 -0 -1 -0 -0
20 20 19 18 17 17 14 13 10 3 3 3 3 3 4 3 3 3 3 2 1 2 3 4 5 6 8 9 9 9 9 8 7 6 7 6 6 5 3 2 1 1 1
20 20 20 19 18 17 16 15 9 3 4 4 4 4 4 4 3 4 3 3 2 3 4 5 7 7 9 10 11 12 12 11 10 8 8 7 7 7 7 7 5 3 2
20 21 21 20 20 18 18 17 13 11 10 5 5 5 4 3 3 4 3 3 3 4 5 7 8 10 11 10 11 11 12 12 13 11 10 9 8 9 8 8 8 7 4
21 21 21 20 20 19 19 18 15 14 12 11 5 5 5 4 4 3 3 3 4 6 7 8 8 9 9 8 9 10 13 12 13 13 12 11 11 10 10 9 9 9 8
21 21 21 20 20 20 20 19 17 12 10 8 6 6 5 4 4 3 3 4 5 6 7 8 8 8 9 9 9 12 13 14 15 15 14 13 12 11 11 11 11 10 10
21 20 21 20 20 20 20 21 19 17 16 13 12 10 6 4 4 3 3 4 5 6 7 7 7 6 8 9 11 10 11 11 16 16 15 15 13 12 12 12 12 11 10
21 22 22 21 21 20 21 21 21 20 18 16 14 13 6 5 4 3 3 5 5 6 6 7 7 7 7 8 11 12 12 13 14 14 18 17 15 15 14 13 13 12 12
21 22 22 22 22 21 22 21 21 21 20 18 16 14 9 6 5 4 4 4 4 5 6 7 6 6 7 8 9 11 11 12 13 14 15 17 17 16 15 14 13 13 12